EHI
28 30 31 33 38 45 49 46 44 43 36 29 26 21 15 12 14 17 19 17 15 12 9 8 11 10 6 7 10 12 8 5 3 2 1 3 6 9 12 13 11 6 5
36 39 40 39 43 48 52 50 48 45 40 33 28 24 17 14 15 21 24 20 15 13 11 11 11 10 8 9 12 12 8 4 3 2 1 2 4 6 9 12 11 8 7
43 47 50 48 47 51 54 54 54 50 44 37 31 25 21 18 19 26 29 24 16 12 12 13 12 10 10 12 13 12 10 6 2 1 2 2 3 3 5 9 12 11 11
40 47 53 53 51 51 54 59 60 54 47 40 33 28 25 23 24 27 31 26 17 11 11 12 11 10 9 10 10 11 11 9 5 3 3 4 4 3 3 6 8 10 11
36 43 50 54 52 51 55 63 66 61 53 46 39 32 28 26 25 27 29 27 20 14 12 14 13 9 7 7 7 8 10 10 8 6 5 5 5 4 3 4 4 6 8
37 42 49 53 52 49 53 63 68 66 60 52 44 35 28 26 25 25 26 25 22 20 19 19 17 12 8 8 8 8 8 9 10 10 8 7 6 5 5 4 3 4 5
38 44 52 55 53 49 54 64 70 68 62 55 46 38 32 29 27 25 23 21 21 23 23 22 20 14 10 10 11 10 9 10 12 13 11 10 9 8 6 4 3 3 3
38 44 53 56 55 55 62 72 76 70 62 55 48 43 40 34 29 26 23 20 18 20 22 22 18 14 11 11 11 11 11 13 14 13 11 10 10 9 6 4 2 1 1
36 40 47 52 55 62 71 79 81 75 67 60 54 49 46 41 35 31 28 25 21 19 19 19 16 14 12 12 11 11 12 13 13 12 10 10 10 9 5 3 3 3 2
32 36 40 46 54 64 74 80 82 78 72 67 60 55 53 49 44 39 36 33 28 23 19 18 17 15 13 12 11 10 11 12 12 11 10 10 10 8 5 4 5 6 6
31 36 41 46 55 64 73 79 81 78 74 69 65 62 61 58 52 47 42 37 32 26 22 20 19 16 13 12 10 8 8 9 10 10 9 9 8 7 5 6 7 7 7
37 43 50 54 60 66 72 78 79 76 74 72 70 69 67 65 60 53 45 39 34 30 27 25 21 16 14 12 9 7 7 8 9 9 8 6 5 5 5 6 7 7 6
44 50 59 66 69 71 74 76 75 75 75 75 75 74 72 70 66 59 51 45 41 36 31 27 22 17 14 11 9 6 6 8 8 7 6 4 3 3 4 4 5 6 6
49 56 68 77 79 78 77 75 73 73 76 77 78 78 75 73 69 62 55 52 48 42 34 27 21 15 12 10 7 6 6 6 6 5 5 4 3 3 3 3 4 5 6
53 61 73 83 85 81 76 73 71 73 76 78 79 79 76 72 66 59 54 52 50 43 35 27 19 12 8 7 6 5 6 6 6 5 5 4 3 2 2 2 3 4 5
57 63 75 85 88 83 76 74 74 75 76 77 78 78 75 67 60 53 50 49 46 41 35 29 20 11 6 4 3 5 6 6 7 7 7 4 1 1 0 1 1 2 3
63 66 75 85 88 83 79 78 78 77 76 76 77 77 73 64 55 49 46 44 42 38 35 30 22 13 7 2 1 3 5 6 7 7 6 3 1 0 0 0 0 0 1
68 68 70 76 80 79 79 79 79 78 79 79 78 77 74 65 54 46 43 42 38 34 33 30 25 17 8 3 1 2 4 6 6 6 6 5 3 1 0 0 0 0 0
68 65 63 65 70 73 77 80 81 81 82 80 78 76 75 67 55 46 42 39 35 32 30 28 25 18 9 3 1 1 4 6 6 6 6 5 3 1 0 0 0 0 0
61 59 58 62 68 72 76 79 80 80 80 77 75 75 75 66 54 46 41 36 32 29 27 26 23 17 10 5 1 2 5 6 6 6 6 4 2 0 0 0 0 0 0
54 55 58 65 71 73 74 75 74 74 74 72 70 71 69 62 52 46 41 36 31 28 26 25 22 17 13 7 2 1 4 6 6 6 6 4 1 0 0 0 0 0 0
50 54 60 66 69 70 70 70 70 70 69 68 65 63 60 56 50 45 42 40 34 28 26 25 23 18 14 8 3 1 2 3 5 5 4 2 0 0 0 0 0 0 0
49 52 57 62 66 67 66 67 69 69 67 64 60 55 54 54 50 45 44 42 35 29 27 26 23 18 14 10 4 1 0 1 3 3 2 0 0 0 0 0 0 0 0
47 49 53 58 64 65 64 65 68 68 65 59 54 51 51 52 50 46 43 39 33 29 27 26 23 19 15 11 6 3 1 1 1 1 0 1 1 0 0 0 0 0 0
44 47 51 56 59 61 61 61 63 64 62 56 50 47 46 46 47 44 38 32 27 24 23 22 21 18 14 10 6 3 2 1 0 0 0 1 1 0 0 0 0 0 0
42 46 50 52 54 56 57 57 58 60 60 55 49 44 41 42 44 41 34 26 20 17 15 17 17 15 11 6 3 2 1 1 0 0 0 1 1 0 0 0 0 0 0
Wind_Speed
11 10 9 9 9 8 7 5 4 4 2 1 1 1 1 1 1 2 2 2 1 0 1 1 0 1 1 1 1 1 1 1 1 0 0 0 1 1 1 1 2 2 3
11 11 10 9 10 9 8 7 5 4 4 2 1 1 1 1 2 1 2 2 1 1 1 1 1 0 1 1 1 1 1 1 1 1 1 0 0 1 1 1 2 2 2
14 13 12 10 10 10 9 7 6 5 4 4 3 2 1 0 0 2 2 2 1 1 1 1 1 1 1 1 1 1 2 2 2 1 1 1 1 1 1 2 2 3 2
15 14 13 11 10 10 9 7 7 5 4 4 3 3 2 2 2 1 2 2 2 1 1 1 1 1 1 1 2 0 1 1 2 1 1 1 1 2 1 1 2 3 3
14 14 14 12 11 10 10 8 7 6 5 4 4 3 2 2 1 1 2 2 2 1 0 0 0 1 1 1 1 1 1 1 1 1 1 1 1 2 2 2 1 2 2
14 13 13 12 11 10 10 10 8 6 5 5 4 3 2 1 1 1 1 2 2 1 0 1 1 1 1 1 1 1 1 1 1 2 2 1 1 2 2 2 3 2 1
13 14 14 13 11 11 10 10 9 7 7 6 5 4 4 3 2 1 2 1 1 1 1 1 1 1 1 0 1 1 1 1 2 2 1 1 1 1 2 3 3 2 1
11 13 14 13 12 12 11 10 10 8 7 7 5 4 4 3 2 2 1 1 1 2 2 2 2 2 2 2 1 0 1 1 1 2 2 1 1 0 1 2 3 3 2
11 12 14 14 13 12 11 10 10 9 8 7 6 5 4 3 2 2 1 1 2 2 2 2 2 1 1 1 1 1 1 1 1 1 2 1 1 0 0 1 3 3 3
10 10 11 13 13 13 11 10 10 9 8 7 7 6 5 4 3 2 2 2 2 2 2 1 1 1 1 1 1 1 1 1 1 1 1 1 1 1 0 1 1 1 3
10 9 9 10 11 12 12 10 10 10 8 8 6 5 6 5 5 3 3 3 2 2 1 1 1 1 1 2 1 1 1 2 1 1 1 1 1 1 0 1 1 2 3
8 9 10 10 10 11 11 11 10 10 9 7 7 6 5 5 5 4 4 3 3 2 2 1 1 0 1 1 1 2 2 1 1 2 2 2 1 1 1 1 2 2 3
7 7 8 9 8 8 9 9 10 10 10 9 8 7 6 5 5 4 4 3 3 2 2 1 1 1 1 1 2 2 2 2 2 2 2 2 3 2 1 2 2 2 4
6 6 7 7 7 7 7 7 8 8 8 9 8 7 6 5 5 5 4 3 3 3 2 2 1 1 2 2 2 2 2 2 2 3 3 4 3 3 2 2 2 3 5
7 6 5 6 7 7 7 7 7 7 7 8 8 8 7 6 6 5 5 4 3 4 3 3 2 2 2 3 3 2 2 2 2 3 3 4 6 7 5 4 3 3 3
5 6 6 6 7 7 8 8 8 8 8 8 8 8 8 7 6 6 5 5 4 4 3 3 3 3 4 7 7 5 3 2 2 2 3 4 5 7 8 8 7 5 4
3 3 4 5 6 6 6 6 7 8 8 8 7 8 8 8 7 7 6 5 4 4 4 4 3 5 6 6 5 5 2 2 2 2 2 3 5 5 4 5 5 5 6
2 2 2 4 5 6 7 7 7 7 8 8 8 8 8 8 7 6 6 5 5 4 4 4 4 4 5 4 4 3 1 2 2 2 3 4 4 4 3 3 3 4 4
2 1 0 3 4 5 6 7 7 7 8 7 7 7 7 7 7 7 6 5 5 5 4 4 4 4 5 4 2 1 1 2 2 2 3 3 4 4 3 2 3 3 3
3 2 1 0 2 4 5 6 6 7 7 7 6 6 6 7 7 7 6 5 5 5 5 5 4 4 4 4 3 1 1 2 2 2 3 4 4 4 3 1 2 2 2
3 2 1 1 2 3 4 5 5 5 5 5 6 6 6 6 6 6 6 6 5 5 5 5 4 4 5 6 5 3 1 1 2 2 3 3 6 4 2 1 1 2 1
4 3 2 2 2 3 3 4 4 4 5 6 6 6 6 6 6 6 6 6 6 6 5 5 5 4 5 5 6 5 3 1 1 1 2 4 7 5 2 1 1 1 0
3 3 3 2 2 3 3 4 3 5 6 6 6 6 6 5 6 7 7 6 6 6 6 5 5 5 5 5 8 7 5 3 1 1 4 6 7 5 3 3 4 3 2
3 3 2 2 2 2 3 3 4 4 5 5 5 5 6 6 6 5 6 6 6 6 5 5 5 5 5 5 6 6 5 4 3 3 4 6 6 4 3 4 4 3 3
2 2 2 1 1 1 2 3 3 4 5 4 4 4 5 5 5 4 3 5 4 4 5 5 5 5 5 6 9 7 6 5 4 4 4 4 4 4 4 4 4 4 3
2 2 2 2 2 0 2 2 3 4 5 5 4 4 4 4 4 4 3 2 2 4 5 4 4 3 5 9 10 10 8 7 8 6 5 5 5 5 5 5 5 4 4
Wind_Direction
168 160 159 154 152 149 152 161 169 155 164 184 184 187 182 195 176 167 150 166 212 217 228 310 195 215 241 267 275 278 233 223 202 165 347 151 150 116 98 116 111 107 118
160 163 163 166 162 158 161 166 169 163 171 179 177 179 196 219 174 143 144 163 170 261 238 215 261 218 231 279 267 261 272 265 213 184 176 229 304 65 84 89 92 92 97
169 168 172 175 171 166 167 169 164 165 177 177 181 189 168 242 183 166 147 153 160 188 323 312 301 282 241 231 248 233 248 256 259 209 188 197 186 106 46 76 96 96 86
169 170 173 176 176 170 166 161 160 166 171 173 187 199 185 190 197 182 142 155 170 195 217 273 298 301 303 272 276 141 269 250 259 255 234 212 146 152 133 54 69 75 71
168 170 171 171 176 173 167 161 158 164 167 179 193 205 218 200 177 150 140 148 153 184 158 354 16 312 331 338 319 334 294 265 268 261 243 233 200 187 171 168 133 80 64
164 166 165 164 172 170 167 163 158 164 170 179 187 194 217 203 140 142 154 179 157 146 108 102 44 11 12 349 340 315 314 309 296 284 260 236 209 197 180 163 152 129 102
163 165 165 166 170 171 170 164 159 167 175 182 189 188 198 194 191 198 193 204 139 122 100 64 47 27 4 353 9 319 336 341 312 298 295 269 244 206 159 148 153 145 144
163 166 166 167 171 172 168 164 160 168 177 181 184 182 183 195 184 188 209 141 89 85 82 80 66 46 27 17 8 4 333 352 311 324 334 317 318 321 157 159 150 148 152
163 167 167 172 172 172 170 165 159 166 174 177 172 178 182 179 161 155 172 111 104 122 82 78 76 68 65 28 9 32 23 357 337 353 360 335 332 349 79 156 167 162 157
160 165 169 172 171 171 165 162 161 165 169 171 177 178 176 167 169 157 130 108 93 80 91 71 65 56 55 47 38 43 38 24 16 13 7 340 344 26 99 138 169 166 148
157 161 165 163 163 164 164 162 160 163 168 174 176 168 167 168 167 163 152 136 128 131 133 109 78 62 62 56 37 47 59 51 43 21 28 6 345 350 49 135 128 118 122
151 156 155 154 158 161 163 163 166 169 172 171 165 168 166 165 166 163 155 148 148 152 148 135 117 59 70 74 57 32 49 58 57 45 35 10 15 26 31 91 116 120 123
141 148 148 151 156 157 155 160 169 171 173 169 169 170 169 166 164 153 145 150 145 136 127 121 107 49 58 80 71 52 38 54 62 57 51 36 41 36 45 77 95 115 120
137 145 144 148 148 147 147 156 163 165 169 167 170 167 166 161 152 147 149 151 143 137 130 116 98 67 62 64 59 60 53 55 66 65 62 52 53 42 39 81 86 110 121
142 139 143 143 147 149 154 163 162 161 163 166 169 164 162 158 154 154 151 146 145 141 133 114 99 85 89 67 50 36 81 68 74 80 82 75 78 67 59 71 75 96 120
143 145 147 148 155 162 170 168 167 163 161 168 171 163 163 162 162 160 155 152 147 138 133 128 119 103 84 67 53 36 50 71 75 88 99 117 106 90 82 81 79 83 113
119 133 147 155 163 170 168 169 169 163 162 167 170 167 166 166 166 167 160 157 156 149 143 138 122 105 93 83 69 47 36 75 79 85 94 99 96 95 89 89 84 73 75
66 93 151 161 170 175 175 173 173 169 168 170 174 171 169 164 161 162 162 161 158 156 153 146 132 124 119 105 84 38 46 103 108 99 86 92 97 84 85 107 98 92 73
63 44 225 188 175 176 174 169 172 172 172 173 174 169 165 162 164 167 165 161 162 163 162 153 147 140 133 138 125 50 166 132 118 105 92 97 103 85 63 107 119 116 119
56 42 7 191 162 165 163 168 175 176 178 172 165 157 162 166 168 165 165 164 165 168 168 163 160 154 150 163 163 179 210 157 146 131 113 99 107 114 75 90 111 121 120
40 35 21 45 101 126 150 165 180 182 169 153 153 160 167 169 168 163 169 169 171 171 173 166 166 164 161 165 179 190 221 188 172 162 156 136 134 133 112 91 104 136 135
30 28 52 67 88 114 147 166 175 163 150 154 161 165 170 179 170 166 172 173 174 178 179 176 179 174 166 169 186 193 206 253 254 161 133 137 152 152 162 145 137 134 140
35 27 44 73 105 125 146 167 163 155 158 162 167 168 171 175 169 173 177 179 184 191 190 186 188 183 172 172 177 185 198 215 221 90 118 141 160 162 182 195 188 195 220
33 31 38 47 58 109 140 154 158 163 165 169 168 165 171 178 177 181 184 189 193 197 196 192 189 183 180 178 173 179 187 186 179 163 141 156 175 191 198 179 195 213 225
23 16 11 13 42 87 125 148 156 160 165 167 169 174 183 182 178 179 190 192 196 201 198 199 194 191 193 188 175 176 182 182 176 164 167 180 180 192 199 197 201 206 212
21 6 349 342 343 66 151 156 154 159 165 168 173 185 190 185 181 178 180 164 192 192 183 185 198 200 187 168 166 171 174 171 167 174 195 201 200 203 201 198 199 205 209